TimeCST,TemperatureF,Dew PointF,Humidity,Sea Level PressureIn,VisibilityMPH,Wind Direction,Wind SpeedMPH,Gust SpeedMPH,PrecipitationIn,Events,Conditions,WindDirDegrees,DateUTC
12:15 AM,69.3,63.9,83,29.82,10.0,South,13.8,-,N/A,,Scattered Clouds,170,2013-03-05 06:15:00
12:35 AM,68.9,63.9,84,29.81,10.0,SSE,13.8,-,N/A,,Scattered Clouds,160,2013-03-05 06:35:00
12:55 AM,68.9,63.7,83,29.81,10.0,South,11.5,-,N/A,,Clear,170,2013-03-05 06:55:00
1:15 AM,68.5,63.5,84,29.81,10.0,South,12.7,18.4,N/A,,Clear,170,2013-03-05 07:15:00
1:35 AM,68.4,63.1,83,29.81,10.0,South,12.7,-,N/A,,Clear,170,2013-03-05 07:35:00
1:55 AM,68.2,63.0,83,29.80,10.0,South,13.8,-,N/A,,Clear,170,2013-03-05 07:55:00
2:15 AM,68.2,63.0,83,29.80,10.0,South,10.4,-,N/A,,Clear,180,2013-03-05 08:15:00
2:35 AM,68.0,63.0,84,29.80,10.0,South,11.5,-,N/A,,Clear,180,2013-03-05 08:35:00
2:55 AM,68.0,63.1,84,29.80,10.0,South,11.5,-,N/A,,Clear,170,2013-03-05 08:55:00
3:15 AM,67.5,63.1,86,29.81,10.0,South,10.4,-,N/A,,Clear,170,2013-03-05 09:15:00
3:35 AM,67.5,63.1,86,29.81,10.0,South,9.2,-,N/A,,Clear,170,2013-03-05 09:35:00
3:55 AM,67.1,63.0,87,29.81,10.0,South,9.2,-,N/A,,Clear,170,2013-03-05 09:55:00
4:15 AM,66.7,62.8,87,29.81,10.0,South,10.4,-,N/A,,Clear,170,2013-03-05 10:15:00
4:35 AM,67.1,62.8,86,29.81,10.0,South,10.4,-,N/A,,Clear,180,2013-03-05 10:35:00
4:55 AM,67.1,62.8,86,29.82,10.0,South,10.4,-,N/A,,Clear,180,2013-03-05 10:55:00
5:15 AM,66.9,62.6,86,29.82,10.0,South,6.9,-,N/A,,Clear,180,2013-03-05 11:15:00
5:35 AM,66.6,62.6,87,29.84,10.0,South,6.9,-,N/A,,Clear,180,2013-03-05 11:35:00
5:55 AM,66.2,62.2,87,29.85,10.0,South,5.8,-,N/A,,Clear,190,2013-03-05 11:55:00
6:15 AM,65.3,61.9,89,29.85,10.0,SSW,4.6,-,N/A,,Clear,200,2013-03-05 12:15:00
6:35 AM,64.0,61.3,91,29.87,10.0,South,4.6,-,N/A,,Clear,190,2013-03-05 12:35:00
7:15 AM,63.5,60.4,90,29.98,10.0,NNW,15.0,21.9,N/A,,Mostly Cloudy,340,2013-03-05 13:15:00
7:35 AM,64.4,60.3,86,29.99,10.0,NNE,8.1,-,N/A,,Mostly Cloudy,20,2013-03-05 13:35:00
7:55 AM,66.0,61.2,84,30.01,10.0,NNE,6.9,-,N/A,,Scattered Clouds,20,2013-03-05 13:55:00
8:15 AM,68.0,61.7,80,30.01,10.0,NNE,6.9,-,N/A,,Clear,30,2013-03-05 14:15:00
8:35 AM,70.0,61.9,75,30.03,10.0,NNE,11.5,-,N/A,,Clear,30,2013-03-05 14:35:00
8:55 AM,71.4,61.7,71,30.06,10.0,NNE,12.7,18.4,N/A,,Clear,20,2013-03-05 14:55:00
9:15 AM,71.2,57.9,63,30.09,10.0,North,25.3,35.7,N/A,,Mostly Cloudy,360,2013-03-05 15:15:00
9:35 AM,63.5,47.1,55,30.11,7.0,North,26.5,39.1,N/A,,Overcast,10,2013-03-05 15:35:00
9:55 AM,64.0,46.6,53,30.14,10.0,North,20.7,28.8,N/A,,Overcast,10,2013-03-05 15:55:00
10:15 AM,63.0,43.0,48,30.15,10.0,North,23.0,38.0,N/A,,Overcast,10,2013-03-05 16:15:00
10:35 AM,63.3,42.4,46,30.17,10.0,North,18.4,27.6,N/A,,Overcast,350,2013-03-05 16:35:00
10:55 AM,64.0,41.9,44,30.19,10.0,North,23.0,28.8,N/A,,Overcast,360,2013-03-05 16:55:00
11:15 AM,64.6,41.2,42,30.21,10.0,North,17.3,29.9,N/A,,Overcast,350,2013-03-05 17:15:00
11:35 AM,65.5,40.6,40,30.22,10.0,North,19.6,26.5,N/A,,Overcast,360,2013-03-05 17:35:00
11:55 AM,67.1,39.7,37,30.23,10.0,North,20.7,27.6,N/A,,Overcast,10,2013-03-05 17:55:00
12:15 PM,68.2,39.2,35,30.23,10.0,North,20.7,31.1,N/A,,Overcast,360,2013-03-05 18:15:00
12:35 PM,69.4,38.8,33,30.23,10.0,North,16.1,28.8,N/A,,Overcast,350,2013-03-05 18:35:00
12:55 PM,70.5,38.1,31,30.22,10.0,North,18.4,28.8,N/A,,Overcast,10,2013-03-05 18:55:00
1:15 PM,71.8,37.6,29,30.22,10.0,North,15.0,25.3,N/A,,Overcast,10,2013-03-05 19:15:00
1:35 PM,72.9,37.4,28,30.21,10.0,North,16.1,25.3,N/A,,Overcast,10,2013-03-05 19:35:00
1:55 PM,75.0,36.5,25,30.20,10.0,North,21.9,31.1,N/A,,Scattered Clouds,350,2013-03-05 19:55:00
2:15 PM,76.1,35.8,23,30.20,10.0,North,20.7,27.6,N/A,,Clear,350,2013-03-05 20:15:00
2:35 PM,76.1,34.7,22,30.20,10.0,North,19.6,28.8,N/A,,Clear,360,2013-03-05 20:35:00
2:55 PM,76.3,33.8,21,30.20,10.0,North,17.3,24.2,N/A,,Clear,360,2013-03-05 20:55:00
3:15 PM,75.6,32.9,21,30.20,10.0,North,20.7,28.8,N/A,,Clear,10,2013-03-05 21:15:00
3:35 PM,74.8,32.4,21,30.20,10.0,North,17.3,24.2,N/A,,Clear,350,2013-03-05 21:35:00
3:55 PM,75.9,31.8,20,30.21,10.0,North,16.1,24.2,N/A,,Clear,350,2013-03-05 21:55:00
4:15 PM,74.3,28.6,18,30.22,10.0,North,17.3,26.5,N/A,,Clear,360,2013-03-05 22:15:00
4:35 PM,73.4,30.0,20,30.22,10.0,North,15.0,24.2,N/A,,Clear,360,2013-03-05 22:35:00
4:55 PM,73.0,30.6,21,30.22,10.0,North,15.0,21.9,N/A,,Clear,360,2013-03-05 22:55:00
5:15 PM,73.2,30.2,20,30.23,10.0,North,11.5,19.6,N/A,,Clear,350,2013-03-05 23:15:00
5:35 PM,72.7,30.4,21,30.23,10.0,North,11.5,16.1,N/A,,Clear,350,2013-03-05 23:35:00
5:55 PM,72.1,30.6,22,30.23,10.0,North,12.7,-,N/A,,Clear,10,2013-03-05 23:55:00
6:15 PM,71.6,30.2,22,30.24,10.0,North,8.1,-,N/A,,Clear,350,2013-03-06 00:15:00
6:35 PM,70.5,29.1,21,30.24,10.0,North,6.9,-,N/A,,Clear,360,2013-03-06 00:35:00
6:55 PM,68.5,28.2,22,30.25,10.0,North,5.8,-,N/A,,Clear,10,2013-03-06 00:55:00
7:15 PM,67.3,27.9,23,30.26,10.0,North,3.5,-,N/A,,Clear,350,2013-03-06 01:15:00
7:35 PM,66.2,27.9,24,30.26,10.0,North,4.6,-,N/A,,Clear,360,2013-03-06 01:35:00
7:55 PM,64.6,27.7,25,30.27,10.0,North,4.6,-,N/A,,Clear,360,2013-03-06 01:55:00
8:15 PM,63.9,27.3,25,30.27,10.0,North,4.6,-,N/A,,Scattered Clouds,360,2013-03-06 02:15:00
8:35 PM,62.8,26.8,26,30.28,10.0,NNW,3.5,-,N/A,,Scattered Clouds,340,2013-03-06 02:35:00
8:55 PM,62.6,26.4,25,30.28,10.0,North,3.5,-,N/A,,Scattered Clouds,350,2013-03-06 02:55:00
9:15 PM,61.7,26.6,26,30.29,10.0,NNW,4.6,-,N/A,,Clear,340,2013-03-06 03:15:00
9:35 PM,59.9,26.6,28,30.29,10.0,North,4.6,-,N/A,,Scattered Clouds,350,2013-03-06 03:35:00
9:55 PM,59.7,26.2,28,30.30,10.0,North,5.8,-,N/A,,Clear,350,2013-03-06 03:55:00
10:15 PM,59.2,26.2,28,30.31,10.0,North,4.6,-,N/A,,Clear,350,2013-03-06 04:15:00
10:35 PM,59.5,26.1,28,30.31,10.0,NNW,3.5,-,N/A,,Clear,340,2013-03-06 04:35:00
10:55 PM,58.1,25.7,29,30.32,10.0,North,4.6,-,N/A,,Clear,350,2013-03-06 04:55:00
11:15 PM,58.3,25.7,29,30.32,10.0,NNW,3.5,-,N/A,,Clear,340,2013-03-06 05:15:00
11:35 PM,56.5,25.3,30,30.31,10.0,North,5.8,-,N/A,,Clear,350,2013-03-06 05:35:00
11:55 PM,56.3,25.0,30,30.32,10.0,North,4.6,-,N/A,,Clear,350,2013-03-06 05:55:00